TimePDT,TemperatureF,Dew PointF,Humidity,Sea Level PressureIn,VisibilityMPH,Wind Direction,Wind SpeedMPH,Gust SpeedMPH,PrecipitationIn,Events,Conditions,WindDirDegrees,DateUTC
12:00 AM,46.4,44.6,93,29.85,6.0,ESE,13.8,-,N/A,Rain,Light Rain,110,2012-10-31 07:00:00
1:00 AM,46.4,44.6,93,29.85,9.0,ESE,13.8,-,N/A,Rain,Light Rain,110,2012-10-31 08:00:00
2:00 AM,46,44,91,29.84,,East,12.7,,,,,100,2012-10-31 09:00:00
2:00 AM,46.4,44.6,93,29.84,8.0,ESE,12.7,18.4,N/A,Rain,Light Rain,110,2012-10-31 09:00:00
3:00 AM,46.4,44.6,93,29.83,9.0,ESE,15.0,-,N/A,Rain,Light Rain,110,2012-10-31 10:00:00
4:00 AM,46.4,42.8,87,29.82,9.0,ESE,12.7,20.7,N/A,Rain,Light Rain,110,2012-10-31 11:00:00
5:00 AM,46,44,89,29.80,,East,11.5,,,,,100,2012-10-31 12:00:00
5:00 AM,46.4,42.8,87,29.80,9.0,ESE,12.7,19.6,N/A,Rain,Light Rain,110,2012-10-31 12:00:00
6:00 AM,46.4,42.8,87,29.80,9.0,ESE,11.5,17.3,N/A,Rain,Light Rain,110,2012-10-31 13:00:00
7:00 AM,46.4,42.8,87,29.78,9.0,East,11.5,19.6,N/A,Rain,Light Rain,100,2012-10-31 14:00:00
8:00 AM,46,43,86,29.77,,East,12.7,,,,,100,2012-10-31 15:00:00
8:00 AM,46.4,42.8,87,29.77,9.0,ESE,12.7,19.6,N/A,Rain,Light Rain,110,2012-10-31 15:00:00
8:22 AM,46.4,42.8,87,29.78,9.0,East,11.5,-,N/A,,Overcast,100,2012-10-31 15:22:00
8:37 AM,46.4,42.8,87,29.78,9.0,East,10.4,-,N/A,Rain,Light Rain,100,2012-10-31 15:37:00
8:54 AM,46.4,42.8,87,29.78,9.0,ESE,15.0,-,N/A,,Overcast,110,2012-10-31 15:54:00
9:00 AM,46.4,42.8,87,29.77,9.0,ESE,15.0,-,N/A,,Overcast,110,2012-10-31 16:00:00
10:00 AM,46.4,42.8,87,29.77,9.0,East,10.4,17.3,N/A,,Overcast,100,2012-10-31 17:00:00
10:47 AM,46.4,42.8,87,29.75,9.0,East,12.7,-,N/A,Rain,Light Rain,100,2012-10-31 17:47:00
11:00 AM,47,44,83,29.74,,East,11.5,,,,,90,2012-10-31 18:00:00
11:00 AM,46.4,42.8,87,29.75,9.0,East,11.5,17.3,N/A,Rain,Light Rain,90,2012-10-31 18:00:00
11:03 AM,46.4,42.8,87,29.75,9.0,ESE,15.0,-,N/A,,Overcast,110,2012-10-31 18:03:00
12:00 PM,48.2,42.8,82,29.73,9.0,ESE,16.1,-,N/A,,Overcast,110,2012-10-31 19:00:00
12:49 PM,48.2,42.8,82,29.72,9.0,East,10.4,-,N/A,Rain,Light Rain,100,2012-10-31 19:49:00
12:59 PM,48.2,42.8,82,29.71,9.0,East,11.5,-,N/A,,Overcast,100,2012-10-31 19:59:00
1:00 PM,48.2,42.8,82,29.71,9.0,ESE,11.5,-,N/A,,Overcast,110,2012-10-31 20:00:00
1:17 PM,48.2,42.8,82,29.71,9.0,East,11.5,-,N/A,Rain,Light Rain,100,2012-10-31 20:17:00
1:35 PM,48.2,42.8,82,29.70,9.0,ESE,12.7,19.6,N/A,,Overcast,110,2012-10-31 20:35:00
2:00 PM,49,44,75,29.68,,East,13.8,,,,,90,2012-10-31 21:00:00
2:00 PM,48.2,42.8,82,29.69,9.0,ESE,16.1,-,N/A,,Overcast,110,2012-10-31 21:00:00
3:00 PM,48.2,42.8,82,29.67,9.0,East,9.2,-,N/A,,Overcast,90,2012-10-31 22:00:00
3:40 PM,48.2,42.8,82,29.68,9.0,East,10.4,-,N/A,Rain,Light Rain,90,2012-10-31 22:40:00
4:00 PM,48.2,42.8,82,29.68,9.0,East,5.8,-,N/A,Rain,Light Rain,90,2012-10-31 23:00:00
4:53 PM,48.2,42.8,82,29.68,9.0,East,9.2,-,N/A,,Overcast,100,2012-10-31 23:53:00
5:00 PM,48,43,77,29.67,,East,8.1,,,,,80,2012-11-01 00:00:00
5:00 PM,48.2,42.8,82,29.68,9.0,East,10.4,-,N/A,,Overcast,100,2012-11-01 00:00:00
5:28 PM,48.2,42.8,82,29.68,9.0,East,8.1,-,N/A,Rain,Light Rain,100,2012-11-01 00:28:00
5:42 PM,48.2,44.6,87,29.68,9.0,ESE,8.1,-,N/A,,Overcast,110,2012-11-01 00:42:00
6:00 PM,48.2,42.8,82,29.69,9.0,ESE,10.4,-,N/A,Rain,Light Rain,120,2012-11-01 01:00:00
7:00 PM,46.4,44.6,93,29.70,6.0,East,3.5,-,N/A,Rain,Rain,80,2012-11-01 02:00:00
7:07 PM,46.4,44.6,93,29.71,5.0,Variable,2.3,-,N/A,Rain,Rain,0,2012-11-01 02:07:00
7:21 PM,46.4,44.6,93,29.71,6.0,ESE,8.1,-,N/A,Rain,Rain,110,2012-11-01 02:21:00
7:27 PM,46.4,44.6,93,29.72,5.0,ESE,8.1,-,N/A,Rain,Rain,120,2012-11-01 02:27:00
7:33 PM,46.4,44.6,93,29.72,6.0,ESE,6.9,-,N/A,Rain,Light Rain,110,2012-11-01 02:33:00
8:00 PM,46,44,92,29.73,,East,5.8,,,,,100,2012-11-01 03:00:00
8:00 PM,46.4,44.6,93,29.73,9.0,ESE,6.9,-,N/A,Rain,Light Rain,120,2012-11-01 03:00:00
9:00 PM,46.4,44.6,93,29.74,8.0,East,3.5,-,N/A,Rain,Rain,90,2012-11-01 04:00:00
9:36 PM,44.6,44.6,100,29.73,9.0,ESE,9.2,-,N/A,,Overcast,120,2012-11-01 04:36:00
10:00 PM,44.6,44.6,100,29.74,9.0,East,8.1,-,N/A,,Mostly Cloudy,100,2012-11-01 05:00:00
11:00 PM,45,44,93,29.74,,East,5.8,,,,,80,2012-11-01 06:00:00
11:00 PM,44.6,42.8,93,29.75,9.0,East,5.8,-,N/A,,Overcast,100,2012-11-01 06:00:00